| time (UTC) | temp C | wind direction | speed KPH | gust KPH | rain 1hr cm | rain 24hr cm | rain mn cm | humidity % | barometer mb |
| 20260507124519 | 4 | 240 | 17.7 | 0.0 | 0.00 | 0.00 | 0.00 | 81 | 1013.1 |
| 20260507123022 | 3 | 239 | 12.9 | 0.0 | 0.00 | 0.00 | 0.00 | 84 | 1013.1 |
| 20260507121515 | 3 | 240 | 12.9 | 0.0 | 0.00 | 0.00 | 0.00 | 85 | 1013.1 |
| 20260507120014 | 2 | 237 | 14.5 | 0.0 | 0.00 | 0.00 | 0.00 | 86 | 1013.1 |
| 20260507114512 | 2 | 220 | 11.3 | 0.0 | 0.00 | 0.00 | 0.00 | 87 | 1013.2 |
| 20260507113010 | 2 | 236 | 9.7 | 0.0 | 0.00 | 0.00 | 0.00 | 86 | 1013.3 |
| 20260507110011 | 3 | 230 | 16.1 | 0.0 | 0.00 | 0.00 | 0.00 | 86 | 1013.3 |
| 20260507104507 | 3 | 239 | 14.5 | 0.0 | 0.00 | 0.00 | 0.00 | 86 | 1013.6 |
| 20260507103006 | 2 | 236 | 14.5 | 0.0 | 0.00 | 0.00 | 0.00 | 86 | 1013.6 |
| 20260507101506 | 3 | 229 | 12.9 | 0.0 | 0.00 | 0.00 | 0.00 | 86 | 1013.7 |
| 20260507100008 | 3 | 236 | 12.9 | 0.0 | 0.00 | 0.00 | 0.00 | 85 | 1014.3 |
| 20260507094501 | 3 | 223 | 14.5 | 0.0 | 0.00 | 0.00 | 0.00 | 87 | 1014.5 |
| 20260507093102 | 2 | 219 | 12.9 | 0.0 | 0.00 | 0.00 | 0.00 | 88 | 1014.4 |
| 20260507091559 | 2 | 221 | 11.3 | 0.0 | 0.00 | 0.00 | 0.00 | 88 | 1014.5 |
| 20260507091501 | 2 | 232 | 11.3 | 0.0 | 0.00 | 0.00 | 0.00 | 88 | 1014.5 |
| 20260507090101 | 2 | 241 | 12.9 | 0.0 | 0.00 | 0.00 | 0.00 | 87 | 1014.6 |
| 20260507084605 | 2 | 227 | 11.3 | 0.0 | 0.00 | 0.00 | 0.00 | 87 | 1014.8 |
| 20260507083055 | 2 | 228 | 12.9 | 0.0 | 0.00 | 0.00 | 0.00 | 87 | 1015.0 |
| 20260507081555 | 3 | 233 | 16.1 | 0.0 | 0.00 | 0.00 | 0.00 | 87 | 1015.3 |
| 20260507080054 | 3 | 244 | 14.5 | 0.0 | 0.00 | 0.00 | 0.00 | 87 | 1015.7 |
| 20260507074548 | 3 | 231 | 14.5 | 0.0 | 0.00 | 0.00 | 0.00 | 88 | 1016.0 |
| 20260507073046 | 2 | 239 | 14.5 | 0.0 | 0.00 | 0.00 | 0.00 | 88 | 1016.2 |
| 20260507071547 | 2 | 237 | 14.5 | 0.0 | 0.00 | 0.00 | 0.00 | 89 | 1016.3 |
| 20260507070100 | 2 | 221 | 12.9 | 0.0 | 0.00 | 0.00 | 0.00 | 89 | 1016.6 |
| 20260507064549 | 2 | 211 | 12.9 | 0.0 | 0.00 | 0.00 | 0.00 | 89 | 1016.7 |
| 20260507063038 | 2 | 227 | 11.3 | 0.0 | 0.00 | 0.00 | 0.00 | 89 | 1016.8 |
| 20260507061534 | 2 | 234 | 11.3 | 0.0 | 0.00 | 0.00 | 0.00 | 88 | 1017.1 |
| 20260507060036 | 2 | 239 | 9.7 | 0.0 | 0.00 | 0.00 | 0.00 | 88 | 1017.2 |
| 20260507054529 | 2 | 220 | 11.3 | 0.0 | 0.00 | 0.00 | 0.00 | 88 | 1017.3 |
| 20260507053028 | 2 | 225 | 9.7 | 0.0 | 0.00 | 0.00 | 0.00 | 88 | 1017.5 |
| 20260507051527 | 2 | 222 | 8.0 | 0.0 | 0.00 | 0.00 | 0.00 | 88 | 1017.7 |
| 20260507050038 | 2 | 217 | 8.0 | 0.0 | 0.00 | 0.00 | 0.56 | 88 | 1017.7 |
| 20260507044519 | 3 | 226 | 9.7 | 0.0 | 0.00 | 0.00 | 0.56 | 88 | 1017.8 |
| 20260507043015 | 3 | 238 | 8.0 | 0.0 | 0.00 | 0.00 | 0.56 | 88 | 1017.9 |
| 20260507041512 | 3 | 232 | 8.0 | 0.0 | 0.00 | 0.00 | 0.56 | 87 | 1018.1 |
| 20260507040106 | 3 | 226 | 6.4 | 0.0 | 0.00 | 0.00 | 0.56 | 88 | 1018.1 |
| 20260507034503 | 3 | 220 | 4.8 | 0.0 | 0.00 | 0.00 | 0.56 | 87 | 1018.1 |
| 20260507033058 | 3 | 218 | 6.4 | 0.0 | 0.00 | 0.00 | 0.56 | 87 | 1018.1 |
| 20260507031553 | 4 | 242 | 6.4 | 0.0 | 0.00 | 0.00 | 0.56 | 86 | 1018.0 |
| 20260507030048 | 5 | 202 | 9.7 | 0.0 | 0.00 | 0.00 | 0.56 | 86 | 1018.0 |
| 20260507024546 | 5 | 198 | 11.3 | 0.0 | 0.00 | 0.00 | 0.56 | 86 | 1017.9 |
| 20260507023040 | 5 | 197 | 11.3 | 0.0 | 0.00 | 0.00 | 0.56 | 84 | 1018.0 |
| 20260507021538 | 5 | 198 | 9.7 | 0.0 | 0.00 | 0.00 | 0.56 | 83 | 1018.0 |
| 20260507020045 | 6 | 195 | 9.7 | 0.0 | 0.00 | 0.00 | 0.56 | 81 | 1017.9 |
| 20260507014542 | 7 | 198 | 8.0 | 0.0 | 0.00 | 0.00 | 0.56 | 76 | 1018.0 |
| 20260507013038 | 7 | 205 | 8.0 | 0.0 | 0.00 | 0.00 | 0.56 | 72 | 1017.9 |
| 20260507011541 | 8 | 205 | 6.4 | 0.0 | 0.00 | 0.00 | 0.56 | 70 | 1017.9 |
| 20260507010042 | 8 | 184 | 9.7 | 0.0 | 0.00 | 0.00 | 0.56 | 70 | 1017.8 |
| 20260507004532 | 8 | 208 | 12.9 | 0.0 | 0.00 | 0.00 | 0.56 | 67 | 1017.9 |
| 20260507003031 | 8 | 196 | 6.4 | 0.0 | 0.00 | 0.00 | 0.56 | 68 | 1017.9 |
| 20260507001552 | 8 | 240 | 8.0 | 0.0 | 0.00 | 0.00 | 0.56 | 66 | 1018.1 |
| 20260507000036 | 8 | 274 | 8.0 | 0.0 | 0.00 | 0.00 | 0.56 | 67 | 1018.2 |
| 20260506234534 | 9 | 292 | 8.0 | 0.0 | 0.00 | 0.00 | 0.56 | 65 | 1018.2 |
| 20260506233029 | 9 | 276 | 6.4 | 0.0 | 0.00 | 0.00 | 0.56 | 64 | 1018.3 |
| 20260506231526 | 8 | 292 | 6.4 | 0.0 | 0.00 | 0.00 | 0.56 | 66 | 1018.2 |
| 20260506230028 | 8 | 302 | 8.0 | 0.0 | 0.00 | 0.00 | 0.56 | 68 | 1018.3 |
| 20260506224523 | 8 | 320 | 8.0 | 0.0 | 0.00 | 0.00 | 0.56 | 69 | 1018.3 |
| 20260506223025 | 7 | 300 | 8.0 | 0.0 | 0.00 | 0.00 | 0.56 | 71 | 1018.6 |
| 20260506221522 | 7 | 315 | 9.7 | 0.0 | 0.00 | 0.00 | 0.56 | 71 | 1018.6 |
| 20260506220022 | 7 | 309 | 11.3 | 0.0 | 0.00 | 0.00 | 0.56 | 74 | 1018.8 |
| 20260506213021 | 7 | 11 | 14.5 | 0.0 | 0.00 | 0.00 | 0.56 | 77 | 1019.2 |
| 20260506211535 | 7 | 325 | 12.9 | 0.0 | 0.00 | 0.00 | 0.56 | 75 | 1019.3 |
| 20260506210030 | 7 | 355 | 11.3 | 0.0 | 0.00 | 0.00 | 0.56 | 71 | 1019.4 |
| 20260506204523 | 8 | 56 | 1.6 | 0.0 | 0.00 | 0.00 | 0.56 | 61 | 1019.5 |
| 20260506203019 | 8 | 150 | 1.6 | 0.0 | 0.00 | 0.00 | 0.56 | 63 | 1019.4 |
| 20260506201518 | 8 | 213 | 4.8 | 0.0 | 0.00 | 0.00 | 0.56 | 62 | 1019.5 |
| 20260506200016 | 8 | 196 | 4.8 | 0.0 | 0.00 | 0.00 | 0.56 | 65 | 1019.4 |
| 20260506194513 | 7 | 74 | 4.8 | 0.0 | 0.00 | 0.00 | 0.56 | 65 | 1019.5 |
| 20260506193009 | 7 | 121 | 6.4 | 0.0 | 0.00 | 0.00 | 0.56 | 69 | 1019.5 |
| 20260506191510 | 7 | 141 | 4.8 | 0.0 | 0.00 | 0.00 | 0.56 | 74 | 1019.5 |
| 20260506190009 | 7 | 84 | 3.2 | 0.0 | 0.00 | 0.00 | 0.56 | 74 | 1019.8 |
| 20260506184508 | 7 | 93 | 3.2 | 0.0 | 0.00 | 0.00 | 0.56 | 75 | 1019.9 |
| 20260506183004 | 6 | 59 | 3.2 | 0.0 | 0.00 | 0.00 | 0.56 | 77 | 1020.1 |
| 20260506181504 | 6 | 49 | 4.8 | 0.0 | 0.00 | 0.00 | 0.56 | 79 | 1020.3 |
| 20260506180002 | 6 | 157 | 4.8 | 0.0 | 0.00 | 0.00 | 0.56 | 80 | 1020.3 |
| 20260506174558 | 5 | 66 | 3.2 | 0.0 | 0.00 | 0.00 | 0.56 | 83 | 1020.3 |
| 20260506173125 | 5 | 100 | 8.0 | 0.0 | 0.00 | 0.00 | 0.56 | 84 | 1020.4 |
| 20260506171556 | 5 | 63 | 3.2 | 0.0 | 0.00 | 0.00 | 0.56 | 86 | 1020.4 |
| 20260506170105 | 5 | 67 | 3.2 | 0.0 | 0.00 | 0.00 | 0.56 | 88 | 1020.3 |
| 20260506164549 | 5 | 68 | 1.6 | 0.0 | 0.00 | 0.00 | 0.56 | 88 | 1020.3 |
| 20260506163054 | 4 | 69 | 0.0 | 0.0 | 0.00 | 0.00 | 0.56 | 89 | 1020.4 |
| 20260506161546 | 4 | 69 | 1.6 | 0.0 | 0.00 | 0.00 | 0.56 | 89 | 1020.3 |
| 20260506160045 | 4 | 69 | 1.6 | 0.0 | 0.00 | 0.00 | 0.53 | 91 | 1020.1 |
| 20260506154600 | 3 | 71 | 1.6 | 0.0 | 0.00 | 0.00 | 0.53 | 92 | 1019.9 |
| 20260506151538 | 3 | 76 | 3.2 | 0.0 | 0.00 | 0.00 | 0.53 | 93 | 1019.7 |
| 20260506150037 | 3 | 81 | 4.8 | 0.0 | 0.00 | 0.00 | 0.53 | 93 | 1019.5 |
| 20260506144542 | 3 | 178 | 3.2 | 0.0 | 0.00 | 0.00 | 0.53 | 93 | 1019.6 |
| 20260506143035 | 3 | 185 | 1.6 | 0.0 | 0.00 | 0.00 | 0.53 | 93 | 1019.5 |
| 20260506141534 | 2 | 185 | 3.2 | 0.0 | 0.00 | 0.00 | 0.53 | 93 | 1019.5 |
| 20260506140036 | 2 | 248 | 0.0 | 0.0 | 0.00 | 0.00 | 0.53 | 93 | 1019.3 |
| 20260506134532 | 2 | 248 | 1.6 | 0.0 | 0.00 | 0.00 | 0.53 | 93 | 1019.3 |
| 20260506133038 | 2 | 248 | 3.2 | 0.0 | 0.00 | 0.00 | 0.53 | 93 | 1019.3 |
| 20260506131529 | 2 | 248 | 3.2 | 0.0 | 0.00 | 0.00 | 0.53 | 93 | 1019.0 |
| 20260506130028 | 2 | 248 | 1.6 | 0.0 | 0.00 | 0.00 | 0.53 | 93 | 1018.9 |